Home   Weather   Udon Thani   Past weeks

Flag for Thailand Past Weather in Udon Thani, Thailand — Yesterday and Last 2 Weeks

Now
77 °F

Passing clouds.


Feels Like: 79 °F
Forecast: 59 / 86 °F
Wind: 3 mph from Northeast

Location: Udon Thani Airport

Current Time: Dec 9, 2016 at 10:55:37 am

Latest Report: Dec 9, 2016 at 10:00 am


Visibility: N/A

Pressure: 29.95 "Hg

Humidity: 47%

Dew Point: 55 °F

Location of Udon ThaniLocation

Past Weather in Udon Thani — Graph

°F

Udon Thani Temperature Yesterday

Maximum temperature yesterday: 86 °F (at 3:00 pm)
Minimum temperature yesterday: 64 °F (at 4:00 am)
Average temperature yesterday: 74 °F

High & Low Weather Summary for the Past Weeks

 TemperatureHumidityPressure
High90 °F (Nov 24, 11:00 am)100% (Nov 26, 4:00 am)30.12 "Hg (Nov 26, 4:00 am)
Low61 °F (Dec 1, 6:00 am)40% (Dec 8, 3:00 pm)29.77 "Hg (Nov 25, 3:00 pm)
Average75 °F71%29.97 "Hg
* Reported Nov 24 9:00 am — Dec 9 9:00 am, Udon Thani, Weather by CustomWeather, © 2016

Note: Actual official high and low records may vary slightly from our data, if they occured in-between our weather recording intervals... More about our weather records

Advertising

Udon Thani Weather History for the Previous 24 Hours

Scroll right to see more
 ConditionsComfort  
Time TempWeatherWind HumidityBarometerVisibility
9:00 am
Fri, Dec 9
73 °FClear.3 mph61%29.95 "Hg5 mi
8:00 am68 °FFog.No wind83%29.95 "Hg3 mi
7:00 am63 °FFog.No wind94%29.92 "Hg2 mi
6:00 am63 °FClear.No wind94%29.89 "Hg4 mi
5:00 am63 °FClear.No wind88%29.89 "Hg4 mi
4:00 am63 °FClear.No wind94%29.89 "Hg4 mi
3:00 am63 °FClear.No wind94%29.89 "Hg10 mi
2:00 am66 °FClear.2 mph78%29.89 "Hg10 mi
1:00 am68 °FClear.3 mph78%29.92 "Hg10 mi
11:00 pm
Thu, Dec 8
72 °FClear.No wind69%29.95 "Hg10 mi
10:00 pm73 °FClear.2 mph65%29.95 "Hg4 mi
9:00 pm75 °FClear.2 mph61%29.95 "Hg5 mi
8:00 pm77 °FClear.1 mph57%29.92 "Hg5 mi
7:00 pm77 °FClear.3 mph57%29.89 "Hg5 mi
6:00 pm79 °FClear.2 mph51%29.89 "Hg5 mi
5:00 pm81 °FClear.5 mph48%29.86 "Hg6 mi
4:00 pm82 °FClear.7 mph45%29.86 "Hg6 mi
3:00 pm86 °FPassing clouds.8 mph40%29.86 "HgN/A
2:00 pm84 °FPassing clouds.6 mph43%29.89 "HgN/A
12:00 pm82 °FPassing clouds.9 mph45%29.95 "HgN/A
11:00 am81 °FPassing clouds.7 mph45%29.98 "HgN/A
10:00 am77 °FPassing clouds.10 mph51%30.01 "HgN/A
Weather by CustomWeather, © 2016

See weather overviewHow to use our weather pages